Wind_Speed
74 72 76 82 82 82 84 82 80 79 78 76 73 71 69 67 66 63 61 60 58 57 56 55 53 52 52 51 50 49 49 48 46 45 44 42 40 37 35 31 27 26 24 23 24 24 29 38 41 42 44 43 42 41 39 39 37 34 32 31 30 28 26 24 23 23 23 21 20 19 18 17 18 19 17 16 15 15 15 15 16 17 17 17 18 18 19 19
75 74 75 80 81 78 81 82 80 78 77 77 75 72 70 68 66 64 62 60 59 58 57 56 54 53 52 52 51 50 49 49 48 47 45 43 42 39 36 32 29 28 27 25 25 26 28 35 40 41 44 44 43 43 41 40 38 35 33 31 30 29 27 26 25 25 24 22 21 19 18 18 18 18 17 16 17 16 15 15 16 18 18 18 18 19 19 20
74 75 77 81 83 78 76 78 79 79 77 76 76 73 71 69 67 65 62 61 60 59 58 57 56 54 53 53 52 51 50 50 49 47 45 45 44 41 38 34 31 29 29 27 26 28 28 30 34 37 42 44 42 43 42 40 38 36 33 31 31 30 29 28 27 26 25 24 21 20 19 18 18 17 16 17 17 16 16 16 17 18 19 19 19 19 20 20
73 74 76 78 82 82 76 74 76 77 77 77 75 74 72 70 67 65 63 61 60 59 59 58 57 55 53 53 54 52 51 52 50 47 46 45 44 43 40 36 33 31 31 30 28 29 30 29 31 35 40 43 42 42 43 41 39 37 34 31 32 31 31 30 28 28 27 25 23 21 19 18 19 18 17 17 17 17 17 18 18 18 18 19 20 20 21 21
74 73 75 75 76 81 79 74 75 73 72 76 76 74 73 71 68 66 64 62 61 60 59 59 58 56 54 54 55 53 52 53 50 48 47 46 45 44 41 38 36 34 33 32 30 30 31 30 30 34 40 42 42 43 43 42 40 36 34 33 34 33 32 32 30 29 29 27 25 22 20 20 19 19 19 19 19 20 19 19 18 18 19 20 21 21 21 21
76 75 75 75 72 76 79 75 76 74 70 71 73 74 73 71 69 67 65 63 62 60 60 60 59 57 55 55 55 54 54 53 50 49 49 46 46 46 43 41 39 37 36 35 33 31 32 31 29 32 39 42 43 44 42 43 41 36 34 36 37 35 34 34 31 31 30 28 26 24 23 21 20 20 21 21 21 21 19 19 19 19 20 21 22 22 22 22
77 77 75 74 73 75 78 75 72 71 70 70 71 72 72 71 70 68 66 65 63 61 61 61 60 59 56 56 56 56 55 53 50 50 50 48 48 48 45 44 41 40 39 37 35 33 32 31 29 30 38 43 44 44 43 43 41 37 36 38 38 37 36 35 33 32 32 30 28 27 25 22 21 22 22 22 22 21 20 20 21 20 21 22 23 24 23 23
75 79 77 73 73 74 75 72 68 66 66 67 69 71 72 71 70 69 68 66 64 62 62 62 61 60 57 56 57 57 55 53 51 50 51 51 50 49 47 45 44 42 41 39 37 34 32 32 30 29 35 41 43 44 43 43 42 39 38 40 40 38 37 37 35 34 33 32 30 27 25 24 23 23 22 23 23 22 22 22 22 22 22 23 24 24 24 24
73 77 78 73 72 73 73 70 65 63 65 65 64 67 70 70 69 69 69 67 66 64 63 63 61 60 59 57 57 57 54 51 50 49 51 51 51 50 47 46 46 44 43 41 38 35 34 32 30 30 32 36 40 44 44 44 42 40 41 42 42 39 39 38 36 35 35 34 31 28 28 26 24 23 24 24 23 23 24 24 23 23 23 24 24 25 25 25
73 75 79 74 70 69 73 73 67 63 63 65 64 65 67 67 67 67 68 68 66 66 64 63 62 61 60 59 58 57 54 53 51 50 51 51 50 50 47 46 47 45 44 43 39 36 36 33 31 31 32 32 35 40 46 46 44 41 42 43 43 41 40 40 38 37 37 36 32 31 30 28 26 25 24 24 24 24 25 25 25 24 24 24 24 25 25 25
73 75 79 76 70 67 71 75 73 67 59 59 64 65 66 65 64 65 66 67 66 67 66 64 63 61 60 60 58 56 54 55 53 51 51 50 50 49 48 47 47 46 45 44 41 38 38 35 32 31 32 33 33 34 42 47 45 43 43 44 44 42 42 41 40 39 38 37 35 34 32 31 28 25 25 26 25 26 26 26 25 24 25 25 25 26 26 26
73 74 79 77 72 68 70 73 74 69 57 56 62 62 65 66 64 64 65 66 66 67 67 65 63 61 60 60 59 56 54 55 53 52 51 49 49 49 49 49 49 49 46 45 42 39 39 36 33 32 31 33 33 33 37 44 47 45 44 45 46 44 43 43 42 40 39 38 37 36 35 32 27 26 27 27 25 25 26 26 26 25 25 25 26 27 27 27
75 74 78 77 73 69 70 72 72 70 59 57 62 59 61 65 63 64 64 65 66 67 67 66 64 61 61 60 59 57 56 55 54 53 51 49 50 49 50 50 49 50 48 46 44 42 41 39 36 33 32 32 33 33 35 40 46 47 45 46 48 47 45 44 44 42 41 40 39 39 37 30 27 29 30 27 26 26 26 27 27 26 26 26 26 27 28 28
78 74 74 75 75 71 70 73 72 72 62 57 64 64 62 63 62 62 62 62 64 65 66 65 64 62 61 60 59 58 57 56 54 54 53 50 50 50 50 50 49 50 48 45 45 44 42 41 38 36 34 33 32 33 34 37 43 46 46 47 48 49 46 46 46 44 43 42 40 40 37 31 30 33 31 28 26 26 27 28 27 27 27 27 27 28 28 28
81 74 72 75 79 73 70 73 73 72 66 56 64 71 68 66 64 61 61 61 62 63 64 64 63 63 62 61 60 59 57 56 55 54 53 51 50 49 50 51 50 49 47 45 45 44 42 41 39 36 35 33 32 32 33 36 41 43 46 48 49 49 48 47 47 46 44 43 41 41 37 33 35 35 31 29 27 26 27 27 28 28 28 28 28 28 29 29
85 75 71 76 82 77 71 72 72 74 70 59 62 69 67 67 67 65 63 61 61 61 62 63 63 63 63 62 61 60 59 57 56 54 53 53 52 51 51 52 52 50 48 46 46 45 44 42 39 37 36 34 34 33 33 36 41 43 45 48 49 50 49 48 49 47 46 45 43 43 38 36 38 36 31 29 27 27 27 27 28 29 29 29 29 28 29 29
92 80 72 72 79 82 77 75 71 72 71 61 62 68 64 64 66 67 66 64 63 62 62 62 61 62 63 63 61 60 59 57 56 55 54 54 53 53 53 53 53 51 49 48 47 47 45 43 40 39 37 36 34 33 34 36 39 44 46 48 49 51 50 50 50 49 48 46 45 44 40 37 39 37 32 30 29 28 28 28 29 30 30 30 30 29 29 29
97 87 76 69 74 83 84 81 70 65 67 57 57 66 63 63 64 66 69 68 67 65 64 63 62 63 64 63 60 58 57 56 56 55 54 55 53 54 54 54 52 51 50 49 48 48 46 44 41 40 39 37 35 33 34 34 34 41 48 48 49 51 51 50 50 50 49 47 45 44 41 38 39 37 34 32 31 29 30 31 32 32 31 31 30 29 29 30
101 94 81 70 73 82 86 85 70 61 66 55 50 60 61 64 67 66 69 71 72 72 71 69 67 67 66 62 59 57 57 56 55 55 54 54 54 55 56 55 53 51 51 51 49 48 46 44 43 42 40 38 35 32 32 31 31 38 47 50 49 50 51 51 51 51 49 48 46 44 40 38 39 39 36 35 34 32 33 34 33 32 31 31 31 30 30 30
102 99 88 74 75 82 85 86 73 62 68 61 53 63 64 68 73 73 73 71 71 71 70 70 68 69 67 62 59 58 59 58 57 55 55 55 54 55 56 55 54 53 52 51 50 47 45 44 43 40 37 34 32 30 30 31 32 37 44 50 52 51 50 50 52 52 50 49 47 44 41 40 41 41 40 39 38 36 36 34 32 31 32 31 31 31 30 30
99 101 96 81 76 81 84 87 76 62 68 67 58 65 70 71 72 70 68 65 64 63 61 62 63 65 65 61 58 59 60 60 58 57 55 55 55 56 57 56 54 54 51 49 49 47 46 45 42 39 37 34 33 32 32 33 35 36 40 48 53 52 51 51 53 53 51 51 49 46 44 42 42 43 43 42 41 39 37 35 32 33 33 33 33 33 32 32
95 101 101 88 78 80 83 87 79 64 67 68 59 63 69 69 67 61 58 58 59 59 60 60 60 60 61 60 58 58 58 58 57 57 56 55 57 59 58 56 55 53 51 48 48 48 48 46 42 39 37 36 35 35 35 36 37 36 38 45 51 51 50 51 54 53 52 52 51 49 47 44 44 46 46 45 44 41 38 36 35 35 35 35 34 33 34 34
92 99 102 95 82 79 82 84 77 68 67 63 58 60 65 66 66 62 61 61 59 60 63 65 64 62 61 62 61 58 57 56 55 56 57 56 58 59 56 54 52 51 51 49 48 47 45 42 40 38 37 36 36 35 35 37 37 36 37 42 48 50 49 51 54 54 53 54 53 51 50 48 46 48 49 47 45 42 40 38 36 36 35 34 34 34 34 33
90 97 101 98 87 80 81 81 74 70 66 58 58 61 61 63 64 63 63 63 60 60 62 66 66 65 64 64 63 60 57 57 55 54 55 57 57 56 54 51 49 49 48 46 45 44 41 37 37 38 37 36 36 35 35 35 35 36 36 39 46 49 48 50 54 55 54 55 55 53 53 51 49 50 50 47 45 43 41 39 37 37 35 35 36 35 34 33
87 95 99 100 94 83 81 82 73 67 65 59 58 59 61 63 61 62 64 63 61 60 61 64 65 65 64 62 61 60 58 57 56 53 52 54 55 53 52 50 48 47 47 44 42 42 41 39 38 38 38 37 36 36 35 34 34 34 34 36 43 48 49 50 53 56 57 57 56 55 55 54 50 51 50 48 47 44 42 41 39 38 37 37 37 35 33 33
84 92 97 101 99 89 86 84 72 65 66 62 58 56 59 62 63 65 66 65 64 63 63 63 64 65 63 61 58 57 57 56 55 53 52 53 52 51 50 49 47 46 46 44 42 42 42 43 42 40 39 38 38 37 36 36 36 36 33 33 40 46 49 50 52 56 58 59 58 56 57 55 52 52 51 49 49 45 43 43 41 39 39 39 37 35 34 34
82 89 95 100 101 97 92 84 73 68 67 64 64 65 63 61 65 67 66 67 67 66 64 63 63 64 63 61 58 57 57 57 55 53 54 54 53 51 50 49 46 46 46 46 46 44 43 44 44 42 41 41 41 39 37 37 38 37 35 35 38 43 48 51 52 56 59 60 59 58 59 59 55 53 52 51 50 48 46 45 43 41 40 39 38 37 36 36
81 87 93 96 100 101 93 87 78 70 66 62 64 72 70 65 66 68 68 71 71 69 66 64 62 62 63 62 60 59 57 54 54 55 54 54 53 52 51 49 45 43 44 45 45 43 43 43 42 41 41 41 40 38 37 37 38 36 36 37 39 41 46 51 54 56 59 61 61 60 60 62 59 54 54 54 52 50 48 46 44 43 42 41 40 39 39 38
80 85 91 92 97 100 96 92 80 67 64 61 60 67 70 66 66 69 71 73 74 71 67 65 63 63 65 64 61 62 59 55 55 55 55 55 54 53 51 49 46 43 43 43 42 42 42 41 41 41 41 40 38 37 37 36 36 34 35 37 40 41 44 49 54 57 59 62 63 62 61 64 62 56 54 55 53 51 49 47 46 45 43 43 42 41 40 41
79 83 88 89 94 100 101 97 84 69 64 61 61 65 65 63 66 71 74 76 76 73 69 66 64 65 66 65 63 62 61 59 56 56 57 57 55 52 51 50 48 45 44 44 44 44 43 43 44 44 43 41 40 40 39 37 36 35 36 38 39 41 43 47 53 57 60 62 62 63 62 64 64 59 56 56 55 51 50 49 49 47 45 44 43 42 42 42
78 81 84 88 93 100 104 100 90 78 69 64 66 66 63 65 70 73 75 75 74 74 72 69 67 66 65 65 64 61 61 60 59 59 60 58 56 53 52 52 51 48 47 46 45 44 44 45 45 44 43 44 44 44 43 41 39 38 38 39 40 41 43 47 52 57 60 60 60 63 63 64 67 62 57 57 55 52 51 50 50 49 47 45 44 43 43 43
78 79 82 87 91 97 102 100 93 82 70 67 70 69 67 70 74 76 76 74 73 74 73 70 67 66 64 63 64 63 61 61 61 62 59 57 57 54 52 51 50 49 48 47 47 45 45 45 45 45 45 46 47 46 46 45 43 41 40 41 42 43 45 47 50 54 56 57 59 63 64 66 68 65 59 57 56 53 52 51 50 50 48 46 45 44 44 44
77 76 80 85 87 93 98 96 92 84 72 68 70 68 68 73 76 77 77 74 72 68 65 64 64 63 64 65 66 65 63 62 62 61 59 57 56 55 52 49 46 46 44 44 45 45 44 44 44 44 45 46 47 47 47 47 46 45 44 44 45 46 47 48 48 51 52 55 60 63 65 67 68 66 62 58 57 54 52 52 52 50 49 48 47 45 45 45
75 75 79 81 81 89 93 90 90 86 78 73 72 68 68 75 79 77 74 73 69 65 62 63 64 66 68 67 67 66 64 64 62 61 60 60 58 56 53 49 47 45 43 43 44 43 43 42 40 41 43 44 46 47 47 46 45 44 43 44 46 46 47 46 47 48 48 53 60 63 66 67 67 66 63 59 57 56 53 51 51 51 50 49 48 46 46 46
74 74 77 76 77 84 85 84 86 84 82 81 78 74 70 74 77 74 71 70 69 68 67 65 66 69 70 69 66 65 65 65 62 61 61 61 58 54 50 48 47 46 46 46 45 44 43 41 39 39 41 43 44 45 46 46 45 44 44 44 44 44 44 44 46 47 47 52 58 62 64 65 66 66 65 60 57 56 55 52 50 50 50 50 49 47 46 47
75 75 75 73 77 83 79 76 78 79 82 85 85 81 73 69 70 67 63 63 66 70 70 69 70 71 72 72 69 67 66 63 61 61 60 58 56 54 51 48 47 45 44 44 43 42 42 41 40 40 40 40 41 42 43 44 44 44 44 43 41 41 43 44 45 46 49 53 54 56 60 63 65 67 66 63 58 56 56 54 50 48 48 49 49 48 48 47
80 79 77 73 76 82 76 71 73 75 82 86 87 84 74 65 62 59 56 57 63 68 69 71 74 72 71 72 71 68 67 65 64 61 59 57 56 55 53 50 47 45 44 43 42 40 38 38 38 39 40 40 40 40 40 41 42 42 42 40 39 40 42 43 45 46 49 52 51 51 56 60 64 67 66 64 60 55 54 54 52 49 47 47 48 48 49 49
81 79 77 73 74 77 73 69 70 74 79 83 84 81 73 66 59 54 56 60 63 66 66 67 70 70 69 70 69 67 67 67 66 63 61 58 55 53 53 51 48 47 47 45 44 42 40 40 39 38 39 40 40 41 40 40 41 40 39 39 39 40 41 42 45 47 48 50 49 49 53 57 62 65 65 64 60 55 52 52 52 51 48 47 48 49 49 49
82 81 78 73 72 72 68 68 70 73 74 74 76 76 74 71 62 55 59 63 63 65 63 62 65 67 66 67 67 66 67 68 65 63 63 60 56 55 55 54 50 48 47 47 46 45 43 43 43 40 39 40 41 42 42 41 41 39 39 39 39 40 42 43 45 46 47 49 49 49 52 54 56 61 63 62 59 54 51 50 50 51 50 49 49 49 50 49
84 83 78 73 72 69 65 66 71 74 74 71 70 70 68 69 65 57 57 60 61 64 64 60 62 64 64 64 67 68 68 68 66 64 62 60 58 57 57 57 54 51 50 49 48 46 44 44 44 42 41 42 42 43 42 40 39 38 37 38 38 39 42 44 45 45 46 48 48 50 52 50 51 57 60 60 57 53 51 50 49 49 49 50 50 49 49 50
86 82 77 73 71 67 67 72 76 77 77 74 72 68 62 63 66 60 54 52 53 57 60 60 60 61 61 63 65 68 69 68 67 66 63 59 58 57 56 56 54 53 52 52 51 49 46 46 46 44 43 43 42 41 39 37 37 36 36 36 35 36 38 41 43 44 45 47 47 49 50 46 46 52 57 57 54 51 49 48 46 46 46 48 49 49 49 49
87 83 78 74 72 70 72 79 82 79 77 77 77 74 67 64 66 62 55 50 47 47 50 54 59 61 64 64 63 65 68 68 67 67 65 60 56 54 54 54 54 54 54 53 52 50 47 46 47 46 44 41 40 39 37 36 36 36 37 36 36 37 38 40 42 41 42 45 44 46 48 43 41 46 52 55 53 50 48 47 44 44 44 46 48 48 49 48
86 79 74 72 71 71 76 81 83 79 77 77 76 75 73 70 68 64 59 56 51 46 43 46 54 61 65 66 66 65 66 68 68 66 64 61 57 54 54 53 54 55 56 55 53 51 49 48 47 47 45 42 40 38 37 36 36 38 39 38 39 40 40 40 41 40 42 43 42 44 45 40 39 42 47 53 54 51 48 45 42 40 40 41 44 46 48 49
85 77 74 73 70 71 78 82 81 77 76 75 73 74 75 75 72 67 62 58 54 48 43 41 48 57 62 64 66 64 62 64 66 66 64 61 59 57 54 50 50 53 54 54 53 52 51 50 48 46 45 44 43 42 41 40 40 42 42 42 42 41 40 40 39 40 42 43 42 46 44 38 38 40 44 50 54 52 47 43 40 38 36 36 38 40 44 47
85 81 80 77 74 75 79 79 74 70 72 73 72 71 73 73 71 66 61 58 54 50 46 42 43 53 61 63 65 64 63 62 62 64 65 63 61 61 55 45 42 45 47 48 48 48 47 47 46 44 45 45 46 45 42 41 42 44 43 42 40 39 38 37 37 40 42 41 43 44 39 35 36 38 40 44 47 49 48 44 41 40 38 37 37 38 40 42
83 87 88 84 80 79 79 78 74 69 68 70 69 68 68 68 66 61 58 58 56 52 50 46 43 49 61 66 67 67 66 63 62 62 63 62 62 63 59 48 41 41 44 46 45 44 43 44 43 43 44 43 42 39 36 35 36 36 34 33 33 33 32 32 34 36 35 35 38 37 32 31 33 35 39 40 41 44 46 45 43 42 42 42 42 41 41 41
82 85 89 88 86 84 81 80 80 74 68 66 66 65 63 62 61 59 57 56 55 52 50 48 45 47 58 67 68 67 66 65 63 61 59 60 60 60 60 55 49 45 46 47 47 45 45 45 44 44 44 43 40 38 36 33 30 29 28 28 28 28 29 31 32 29 27 31 34 29 26 28 30 33 38 39 38 41 43 44 45 45 45 46 46 45 44 43
89 86 84 82 82 86 84 81 80 77 71 65 64 63 59 58 60 60 59 57 56 54 52 50 47 45 53 64 66 66 68 66 64 62 60 60 60 60 61 60 57 54 51 50 50 49 48 47 46 45 43 43 42 41 40 36 32 30 31 31 30 29 30 32 31 28 29 32 31 26 25 28 29 30 34 35 36 40 42 44 46 47 47 48 48 47 46 46
94 91 88 83 79 78 75 72 72 75 73 68 65 65 62 60 59 57 57 59 59 56 52 50 48 44 49 60 65 67 69 67 64 62 60 60 62 63 64 65 64 63 60 56 54 53 52 51 49 47 45 44 43 42 41 39 37 36 35 34 34 34 34 34 32 32 35 34 32 29 29 30 31 31 31 32 34 37 40 44 47 48 49 49 50 50 50 50
93 92 91 87 81 73 67 65 65 69 74 72 66 62 61 60 58 55 54 57 60 58 52 48 47 46 48 56 63 65 62 59 57 57 57 60 64 65 67 68 68 67 67 63 58 55 54 53 51 50 48 46 45 44 42 41 40 40 39 39 39 38 37 36 36 38 39 34 32 33 31 29 30 30 29 30 31 32 34 37 41 44 46 47 49 51 51 51
89 86 83 79 76 73 69 66 65 66 74 75 66 60 59 57 56 55 54 54 57 58 54 48 46 47 48 53 60 61 56 54 56 57 57 60 63 64 66 67 65 62 61 61 59 56 54 52 51 48 48 48 46 45 45 44 42 43 44 43 42 41 40 40 41 41 39 35 35 36 32 27 26 25 25 27 28 29 31 32 34 38 42 45 47 49 50 50
87 84 79 75 74 71 68 68 69 69 72 74 66 60 58 55 54 55 55 54 56 57 56 53 51 50 49 52 54 54 54 57 59 60 58 57 58 58 58 57 56 54 53 53 53 53 51 50 49 47 47 46 45 45 46 45 46 48 47 43 42 43 43 44 43 42 40 38 38 36 30 25 24 24 26 28 29 31 31 32 35 38 42 45 47 48 48 49
Wind_Direction
207 211 212 212 214 214 214 215 216 216 216 216 215 215 215 216 217 217 216 213 211 209 210 211 211 212 212 213 213 212 212 212 212 214 214 213 215 215 214 213 211 211 212 213 211 209 208 208 209 211 213 215 215 213 214 221 223 221 221 221 223 223 217 210 206 207 211 212 212 210 207 203 201 200 194 190 189 183 177 172 168 165 165 167 162 158 156 155
206 210 211 211 213 214 215 215 217 217 217 217 216 215 215 216 218 218 217 215 213 210 211 211 211 212 213 213 214 213 213 214 213 213 214 214 215 216 214 213 211 211 214 217 214 213 212 212 216 217 214 212 214 215 215 221 223 221 221 220 222 222 218 212 207 208 210 210 211 210 208 207 205 202 194 192 194 189 182 179 176 171 169 172 170 165 162 159
206 210 212 212 213 214 214 215 216 218 218 218 218 217 216 217 218 218 218 217 215 212 211 212 212 212 214 214 214 214 214 214 214 213 215 215 215 216 215 213 212 212 215 219 218 218 219 219 220 219 215 211 211 215 216 219 223 222 221 219 221 222 219 215 209 208 210 210 210 209 207 208 209 203 196 197 198 194 189 186 184 178 174 175 176 170 166 164
205 209 213 212 214 215 214 213 214 217 218 219 219 218 217 217 218 219 219 218 217 215 213 213 213 212 214 215 215 215 214 214 214 214 216 216 216 217 216 214 213 213 215 219 221 221 224 227 227 222 216 210 210 214 216 217 220 221 220 219 221 221 219 217 211 209 211 211 210 209 205 207 210 204 198 199 201 200 195 191 190 184 179 179 179 176 171 169
203 205 210 211 213 215 215 213 213 215 217 218 219 219 218 218 218 219 219 219 218 217 215 214 214 213 214 216 216 215 216 215 213 214 216 217 218 218 217 215 213 215 217 219 221 224 226 231 233 226 218 210 209 214 216 216 219 220 219 219 220 220 219 217 212 211 213 212 211 209 206 208 209 205 201 199 203 205 198 193 193 188 184 183 182 180 176 173
202 202 206 210 211 213 214 213 213 214 216 218 219 220 220 219 219 219 220 220 219 218 217 215 215 214 214 216 217 216 216 215 213 214 215 216 218 218 217 215 214 216 219 220 221 225 227 232 236 231 222 212 209 214 217 217 218 220 220 220 220 218 218 217 212 213 215 214 212 210 207 207 208 208 206 202 205 207 202 197 197 193 188 186 184 183 182 178
199 201 204 207 210 212 212 212 212 213 216 218 219 219 219 219 219 220 220 221 220 219 219 217 216 215 215 217 217 216 216 215 214 215 215 214 216 217 217 216 216 216 220 221 222 227 229 231 236 234 225 215 212 214 218 220 218 220 223 222 221 218 217 217 212 212 216 216 214 212 210 206 207 210 209 208 207 206 205 201 199 198 192 190 188 186 186 183
195 199 202 204 209 212 211 211 210 209 213 216 219 220 219 219 220 220 220 221 221 220 220 219 217 216 216 218 219 217 216 216 216 217 216 215 216 217 217 217 217 217 219 222 223 226 230 231 235 237 229 218 214 216 220 221 218 220 223 223 223 219 217 217 213 212 215 218 215 214 213 208 208 210 210 212 209 206 208 205 201 200 197 194 192 189 188 187
192 195 200 202 207 210 209 208 206 208 211 212 215 218 219 220 220 220 221 221 221 221 221 220 219 217 217 218 219 217 217 218 218 219 219 218 217 218 217 218 220 218 219 223 224 227 230 232 233 236 235 225 218 217 221 222 218 219 224 224 224 220 218 218 214 212 215 218 217 215 215 212 210 209 212 214 211 210 211 210 206 203 200 198 195 192 191 191
192 190 195 199 201 203 206 206 204 205 210 212 213 215 217 219 218 219 220 221 221 222 221 221 220 218 218 218 218 218 217 217 218 219 220 220 220 220 218 218 220 219 219 223 223 225 230 231 231 234 237 234 226 220 221 222 219 219 224 226 225 222 220 219 215 212 215 218 217 218 217 214 211 209 212 215 213 212 212 213 211 206 202 201 198 196 195 194
192 187 191 196 195 196 202 205 204 203 205 211 216 217 218 218 218 218 219 221 221 222 222 222 221 219 219 219 218 219 219 217 217 217 219 221 221 222 220 219 220 220 219 222 223 223 229 231 231 233 237 237 235 228 223 222 221 221 224 226 225 223 221 220 217 213 215 217 217 220 220 216 213 210 213 216 214 213 214 215 214 209 204 202 201 200 198 198
190 185 188 192 193 192 200 204 203 203 201 206 215 217 219 219 220 219 219 220 221 222 223 222 221 220 219 219 219 219 220 219 218 218 218 220 222 223 223 221 221 222 219 221 223 222 227 231 230 232 237 238 238 236 230 225 222 222 225 226 225 224 222 221 219 215 215 217 217 220 221 218 213 213 216 216 215 216 217 218 217 213 208 204 203 203 202 201
191 186 186 189 191 190 198 203 202 202 200 205 213 216 217 218 219 219 219 219 220 221 222 222 222 221 219 219 219 219 219 219 218 218 218 219 222 223 224 224 223 224 222 220 222 222 225 228 229 230 234 238 239 239 237 231 226 223 225 228 225 224 223 222 221 217 216 217 218 221 222 218 215 217 218 217 216 216 217 220 219 216 212 209 206 206 205 203
193 187 184 186 190 189 194 200 201 200 198 205 214 217 218 218 217 217 217 217 218 219 220 221 221 221 220 218 218 219 219 220 219 218 217 217 220 222 224 225 224 226 226 223 224 225 225 227 228 231 234 237 240 241 239 234 228 225 226 228 227 224 222 222 222 219 217 218 220 223 222 218 219 221 218 217 216 215 217 220 219 217 214 213 211 210 208 206
196 188 183 183 188 189 191 195 197 197 197 203 212 215 217 218 217 216 215 215 216 218 219 220 220 220 220 218 217 218 219 220 220 219 218 217 219 221 223 225 225 226 227 224 225 226 226 227 228 231 235 237 240 241 240 234 228 225 226 228 229 227 223 221 222 220 218 218 220 223 222 218 222 223 219 218 217 216 219 221 222 220 217 215 214 213 212 211
199 189 183 182 186 189 189 192 193 195 198 203 207 209 211 215 218 218 217 215 215 216 217 218 219 219 219 218 217 218 218 218 220 220 219 219 219 220 222 224 226 225 225 224 223 224 224 225 227 230 234 237 239 240 240 236 229 225 225 228 230 228 223 221 222 222 219 219 220 223 221 220 225 225 221 220 219 218 220 222 223 223 221 218 216 215 215 215
203 192 183 181 186 187 187 192 191 192 198 201 203 204 204 208 215 219 218 216 215 215 217 218 218 218 217 217 217 217 218 219 219 220 220 220 220 221 221 223 226 225 225 225 223 223 223 224 226 228 233 236 238 239 240 239 233 228 226 227 230 228 223 221 222 222 221 220 221 223 221 220 227 227 223 222 220 220 221 221 223 224 224 222 219 217 217 218
208 198 187 181 186 186 185 191 189 188 196 197 203 205 203 206 209 212 214 213 213 212 212 213 213 215 216 218 218 217 219 219 220 221 221 221 220 222 222 222 224 226 225 225 224 223 223 224 225 226 230 236 240 243 245 246 242 234 228 227 229 227 223 222 223 223 223 223 222 223 222 221 227 229 226 225 223 222 222 221 222 224 225 225 222 219 219 220
212 204 193 183 186 185 182 187 186 185 192 193 205 209 204 206 206 204 208 208 210 211 211 212 213 216 218 219 218 218 218 219 220 222 222 223 222 223 223 221 222 225 226 226 226 225 224 223 224 228 232 238 243 247 248 247 244 238 230 227 228 227 224 223 224 224 224 224 224 224 222 221 227 230 228 227 225 222 223 223 223 225 227 227 227 224 221 221
215 209 200 187 185 186 182 184 184 184 189 188 200 208 202 203 202 197 200 202 207 213 216 218 218 219 220 218 217 217 218 218 219 221 223 223 223 224 225 223 222 224 226 227 226 225 223 224 226 229 233 237 240 242 242 242 242 240 234 228 227 228 227 225 224 225 224 225 225 224 221 220 225 230 229 228 226 223 225 225 223 225 228 228 229 228 224 223
215 212 206 193 185 189 186 183 182 182 185 182 192 207 203 203 204 199 198 198 202 209 214 215 217 219 218 216 215 216 217 219 218 218 221 223 224 225 225 223 222 224 227 227 226 225 224 225 226 226 227 230 233 235 236 238 239 242 240 233 228 228 230 229 226 225 225 225 226 226 223 220 224 230 230 229 227 224 225 226 224 225 227 228 229 230 227 226
215 214 209 200 188 189 189 185 183 182 182 178 186 207 208 206 210 211 210 210 207 207 209 211 214 217 217 214 214 214 216 218 218 218 219 221 223 224 224 223 223 224 226 227 227 228 227 226 225 224 226 228 231 234 235 237 240 242 244 238 231 229 230 231 228 225 226 226 227 227 225 222 223 228 230 229 228 226 225 225 225 226 227 227 228 231 231 230
214 214 211 205 191 187 190 186 183 183 183 179 182 201 208 206 208 210 213 216 214 210 207 208 211 212 214 215 213 214 216 217 218 220 222 221 223 225 224 224 225 226 228 229 228 228 228 227 227 227 228 229 232 235 236 241 245 245 247 243 235 230 230 233 230 225 226 228 227 228 228 224 224 228 230 230 230 228 227 226 227 229 229 229 229 231 233 233
212 214 213 208 195 189 190 185 184 187 186 183 183 194 203 202 205 207 207 209 211 211 209 208 208 207 209 212 211 211 213 215 217 219 224 225 226 226 225 225 225 226 229 230 228 227 225 225 229 229 230 231 232 234 236 241 246 247 248 246 238 233 232 233 232 226 226 229 229 229 229 226 224 229 231 231 231 230 230 228 228 230 231 231 231 231 232 234
210 214 214 209 200 193 189 187 188 188 187 187 186 193 198 196 200 205 205 204 206 210 210 208 207 206 206 207 207 208 209 212 214 215 220 227 229 228 227 226 225 225 227 229 226 224 221 220 224 226 228 230 231 232 235 239 243 245 248 245 240 236 234 234 234 229 226 228 229 229 231 228 225 229 231 232 232 230 231 231 228 230 232 233 234 233 233 234
208 212 213 210 204 198 194 191 188 186 187 186 185 195 200 194 196 201 203 204 205 208 208 207 207 207 207 205 204 206 206 208 211 210 213 220 225 227 227 226 225 225 227 228 226 222 220 219 221 223 225 227 229 231 233 237 241 243 245 245 241 238 236 236 236 233 228 227 228 229 231 229 226 229 231 232 233 231 231 233 230 229 232 234 236 236 236 235
207 210 213 212 208 205 199 191 189 189 186 181 183 194 200 196 196 200 201 203 205 205 206 207 206 205 206 205 204 206 206 206 207 209 212 217 220 221 222 223 222 223 225 226 226 224 222 221 222 223 225 226 229 231 233 236 241 244 245 246 245 241 238 237 237 235 231 228 228 229 231 231 226 226 230 231 233 232 231 232 233 232 233 235 236 236 237 237
205 209 212 212 210 208 199 191 194 193 182 180 186 193 197 198 200 200 199 201 203 202 204 206 205 204 204 203 203 207 208 207 207 208 212 216 218 218 218 219 217 220 223 225 226 226 224 223 223 226 227 229 231 233 234 237 240 243 244 245 246 244 240 238 237 235 232 228 227 228 230 232 228 224 229 232 232 233 232 232 233 234 235 236 235 235 236 237
203 207 211 212 211 209 201 195 196 188 179 186 191 193 197 200 202 202 200 201 201 200 202 204 204 204 203 200 202 205 206 206 207 208 211 214 217 218 219 218 217 218 220 221 221 222 223 223 223 225 227 228 231 233 235 237 240 242 242 243 244 244 243 240 238 235 232 229 228 227 229 233 230 225 228 233 233 233 234 233 234 234 235 237 237 236 235 236
201 206 209 211 211 210 206 201 198 192 189 193 194 193 195 197 199 200 201 202 201 200 201 201 201 204 205 202 201 203 204 203 204 208 211 214 217 218 219 219 219 220 221 221 221 220 221 222 222 223 224 225 227 230 233 234 237 238 239 241 242 244 244 243 240 236 233 232 231 228 228 232 232 226 225 232 234 234 235 235 235 236 235 236 239 238 238 238
200 204 208 211 211 210 209 204 202 203 200 195 194 193 191 195 198 199 202 204 202 202 202 200 199 201 205 204 202 203 205 203 202 205 210 213 217 219 220 221 221 221 221 223 225 224 223 224 224 223 225 227 227 228 230 231 233 235 236 239 241 242 243 243 242 237 235 236 233 228 228 231 233 229 225 229 234 234 235 236 236 237 237 236 238 240 241 241
198 202 206 210 211 212 211 206 203 205 203 194 192 191 191 196 200 201 202 202 202 203 203 202 202 200 203 205 203 204 207 205 202 204 208 213 218 220 221 223 224 226 227 227 228 228 226 226 226 225 226 229 230 230 231 231 232 234 236 238 239 241 242 243 243 241 239 239 234 229 228 231 234 232 227 227 232 234 235 237 237 237 239 239 238 239 241 243
195 199 205 209 211 213 213 209 205 204 201 193 191 193 196 199 201 202 202 201 203 205 205 207 207 203 202 203 203 204 205 206 205 204 206 210 215 217 218 219 222 225 229 231 231 230 229 227 227 227 228 230 232 232 233 234 235 237 237 238 239 240 243 244 244 245 243 240 235 230 229 231 234 234 231 228 230 233 235 237 238 238 239 241 240 240 241 243
193 197 204 208 210 212 213 212 209 207 202 196 195 201 204 204 203 203 202 201 202 203 204 205 204 201 200 201 203 204 203 205 206 206 207 208 211 213 214 217 219 221 224 226 229 232 234 234 234 234 234 234 235 234 234 233 234 237 238 238 239 242 244 246 247 247 246 241 236 232 231 233 235 235 234 231 230 233 236 237 239 240 240 242 242 242 241 242
190 195 202 206 207 209 211 212 211 209 207 204 204 207 206 205 205 204 202 201 201 202 202 201 200 200 199 199 202 204 204 205 205 206 208 210 211 213 214 216 217 219 221 222 224 226 228 231 232 233 234 235 236 235 234 232 231 233 235 237 240 244 245 247 247 247 247 242 237 235 234 236 236 236 236 234 231 233 236 237 239 240 241 242 243 244 243 242
188 192 198 202 205 207 208 209 208 207 209 211 212 212 207 205 205 204 202 201 202 205 202 198 198 199 199 197 199 202 204 205 206 207 209 210 212 213 215 217 218 220 223 225 226 224 224 224 225 228 230 232 234 234 233 233 234 235 236 238 242 244 245 246 247 247 246 243 241 239 238 238 237 236 236 236 233 233 235 238 239 239 241 243 244 244 245 245
186 190 194 196 202 206 206 205 205 206 208 213 216 214 208 203 203 204 204 203 204 207 206 202 198 199 200 199 197 200 201 203 206 209 210 211 212 213 213 214 218 221 223 226 227 227 228 228 227 229 231 232 233 234 234 233 234 236 239 241 242 243 244 247 248 248 247 246 244 242 241 239 237 236 237 237 236 234 235 238 240 240 240 241 244 245 245 246
185 188 192 194 199 204 204 200 202 205 208 213 218 217 212 207 204 205 208 207 206 206 207 207 203 201 202 202 201 201 202 203 205 207 210 213 215 216 216 215 217 219 221 224 227 229 229 229 228 229 232 234 234 235 236 235 235 237 239 241 242 243 246 247 248 249 250 249 247 244 242 240 239 238 237 237 237 237 236 238 240 242 242 241 241 244 246 247
185 187 191 193 197 201 201 196 198 203 207 211 215 217 218 215 209 206 205 205 207 206 205 208 207 205 204 203 203 204 204 206 206 206 209 212 213 215 217 218 219 220 222 226 229 231 229 227 227 228 231 233 235 236 237 238 238 238 239 240 241 244 246 247 249 251 251 250 250 248 244 242 241 239 238 238 239 239 239 239 240 242 244 244 243 243 245 247
185 187 189 191 194 197 196 193 195 201 204 207 211 212 215 215 210 204 200 201 206 207 206 206 207 208 207 204 203 204 206 207 207 207 210 211 212 213 215 218 219 220 222 225 228 229 228 228 230 230 231 232 234 236 238 239 240 240 241 242 244 246 247 247 248 249 250 251 250 249 247 244 241 239 238 238 240 241 242 241 241 242 244 246 247 246 246 246
185 186 188 189 191 191 188 189 193 199 201 204 209 211 211 212 209 204 199 198 202 205 207 208 208 209 211 210 207 205 207 208 208 208 210 210 211 213 216 219 220 222 222 223 226 228 228 229 230 230 231 233 235 236 236 237 239 240 241 242 245 249 250 251 251 251 252 253 252 251 250 246 242 240 238 238 240 242 243 244 243 244 243 244 246 248 249 248
184 186 187 188 189 187 184 187 193 198 201 203 208 210 211 213 212 207 202 200 201 201 204 209 212 213 213 215 214 210 208 210 211 210 211 211 212 215 218 220 223 225 227 227 229 233 233 232 230 230 231 231 232 233 234 236 237 237 238 239 240 243 245 247 249 250 252 254 254 256 254 246 244 243 239 238 241 243 245 246 246 247 246 246 246 247 249 250
184 184 186 188 189 187 185 189 193 197 201 204 206 210 213 216 216 211 207 204 204 203 202 206 211 213 213 214 214 212 210 210 211 213 213 212 212 214 219 223 226 228 230 231 232 234 234 232 232 232 232 230 229 230 231 232 234 236 238 239 241 242 243 245 246 246 248 250 251 254 252 242 241 244 241 238 239 241 244 246 248 249 248 248 248 248 249 250
182 182 184 187 189 188 188 191 194 196 200 201 204 208 212 216 219 217 211 208 209 209 208 208 208 210 213 214 214 215 214 212 211 212 213 213 212 214 217 222 226 229 230 232 233 233 232 230 230 231 231 230 229 229 231 233 234 236 236 236 238 239 240 242 243 243 244 245 245 248 248 242 240 242 241 239 238 239 242 245 248 250 250 250 251 251 251 251
180 180 184 186 186 187 189 193 196 198 198 198 200 204 209 213 217 218 215 213 215 216 216 215 212 209 210 213 214 215 216 217 216 213 212 212 213 215 215 218 222 224 225 228 230 232 233 233 233 234 235 235 235 237 242 245 243 240 239 238 238 239 240 241 243 244 245 245 246 248 249 249 248 247 247 245 242 242 244 247 249 251 251 251 251 252 253 253
180 181 184 185 185 186 189 193 197 201 200 198 198 200 205 211 214 214 215 216 218 220 218 217 218 214 210 210 213 214 214 216 218 217 214 212 214 215 217 219 222 222 223 225 226 228 231 233 234 237 240 240 242 245 248 252 252 249 250 252 251 250 250 249 249 250 252 253 254 254 255 255 254 254 254 251 247 246 246 248 250 251 252 252 252 252 252 252
183 184 186 184 183 185 187 191 195 199 200 200 202 202 205 208 209 209 210 212 215 218 218 217 219 218 211 209 211 213 213 214 215 217 217 216 217 219 221 223 224 224 226 229 230 230 232 233 234 236 238 239 240 241 239 241 245 246 248 251 252 254 254 251 250 252 253 253 254 254 253 250 248 251 254 252 249 248 248 248 249 249 250 251 250 250 250 250
184 186 188 188 186 185 185 188 193 197 200 203 207 208 207 206 207 209 211 213 214 215 216 219 221 220 213 209 210 212 212 213 213 214 215 216 218 221 224 227 228 228 229 231 232 233 234 236 236 238 239 239 239 239 237 236 235 235 237 240 243 246 245 243 244 244 240 243 247 247 243 240 240 247 252 252 249 247 246 246 247 248 249 250 251 251 251 250
185 185 187 189 190 190 188 188 192 197 200 203 206 209 210 208 208 211 214 217 218 216 217 221 223 223 216 210 211 213 213 213 213 214 214 215 217 220 223 226 227 229 230 231 232 233 234 235 237 238 238 239 239 239 238 237 234 232 233 235 236 236 236 238 239 237 235 238 240 238 235 234 236 238 242 244 246 245 243 244 246 248 250 252 253 254 254 253
188 187 187 187 190 192 193 194 196 198 201 203 205 207 210 211 212 213 215 218 219 219 221 225 225 226 221 213 212 215 217 219 219 219 218 217 216 219 222 225 226 228 229 230 230 231 232 234 235 236 236 236 236 237 237 237 236 235 233 232 232 233 236 239 237 234 236 238 238 237 236 234 233 236 239 244 248 248 246 246 247 249 251 252 253 253 253 254
190 189 189 190 191 191 193 195 197 199 201 203 204 205 207 210 213 215 218 219 220 221 224 226 227 227 224 217 214 215 218 221 222 223 224 222 220 222 225 227 228 228 229 230 231 231 231 232 233 234 235 235 235 236 236 236 237 237 233 232 234 236 238 239 238 237 239 241 240 237 236 236 236 241 248 251 251 251 250 247 246 247 249 250 250 251 251 251
191 189 189 192 194 194 194 194 195 196 199 201 203 204 205 208 212 215 219 220 219 218 220 225 230 231 226 219 215 215 216 218 218 220 224 227 228 229 232 234 233 231 230 231 233 233 233 234 234 235 237 237 237 237 238 238 239 237 235 235 238 239 239 238 239 240 242 245 244 240 242 250 250 244 243 244 246 248 248 248 246 245 247 249 250 251 251 251
Height
5653 5658 5663 5670 5676 5682 5689 5694 5699 5705 5711 5716 5721 5726 5731 5735 5739 5744 5748 5753 5757 5762 5765 5769 5774 5777 5781 5784 5787 5790 5792 5795 5798 5801 5804 5807 5810 5813 5816 5819 5822 5823 5825 5827 5829 5831 5834 5837 5839 5842 5844 5845 5847 5850 5851 5852 5854 5856 5858 5860 5863 5865 5868 5870 5872 5873 5874 5875 5876 5877 5877 5879 5880 5881 5883 5884 5884 5885 5886 5887 5887 5886 5887 5888 5888 5888 5888 5889
5647 5652 5658 5665 5671 5676 5684 5690 5696 5701 5706 5711 5716 5722 5727 5731 5736 5740 5745 5749 5754 5758 5762 5766 5770 5774 5778 5781 5784 5787 5789 5792 5795 5798 5801 5804 5807 5810 5813 5816 5819 5821 5823 5824 5826 5829 5831 5834 5836 5838 5841 5843 5845 5848 5850 5850 5852 5855 5856 5859 5861 5864 5867 5869 5870 5871 5873 5874 5875 5876 5876 5878 5879 5880 5882 5883 5883 5884 5886 5887 5887 5886 5887 5888 5888 5888 5889 5890
5643 5649 5653 5659 5665 5670 5678 5685 5691 5695 5701 5707 5712 5718 5723 5728 5732 5736 5741 5746 5751 5755 5758 5762 5766 5771 5775 5778 5781 5784 5786 5789 5792 5796 5798 5801 5804 5807 5810 5814 5816 5818 5820 5822 5824 5826 5828 5831 5833 5835 5838 5841 5843 5846 5848 5849 5851 5853 5855 5858 5860 5862 5865 5867 5869 5870 5871 5873 5874 5875 5875 5876 5878 5880 5882 5883 5883 5884 5885 5886 5887 5887 5887 5888 5889 5889 5889 5890
5638 5645 5649 5654 5661 5666 5672 5680 5685 5690 5697 5702 5708 5713 5718 5724 5728 5733 5738 5742 5747 5751 5755 5759 5763 5767 5771 5774 5778 5781 5783 5785 5789 5793 5796 5798 5801 5804 5807 5811 5814 5816 5818 5820 5822 5824 5826 5828 5830 5832 5835 5838 5841 5843 5845 5846 5848 5851 5854 5857 5858 5860 5863 5865 5868 5869 5870 5872 5873 5873 5874 5875 5877 5878 5880 5881 5882 5883 5884 5885 5886 5887 5887 5888 5889 5889 5889 5890
5632 5639 5644 5650 5656 5661 5668 5675 5681 5687 5693 5697 5703 5709 5715 5720 5725 5729 5734 5738 5743 5748 5752 5755 5759 5764 5768 5771 5774 5778 5780 5782 5787 5791 5793 5795 5798 5801 5805 5808 5811 5813 5815 5817 5819 5821 5823 5826 5828 5830 5833 5836 5839 5840 5842 5844 5846 5850 5853 5855 5855 5858 5861 5863 5866 5867 5868 5870 5872 5873 5874 5874 5875 5877 5878 5880 5881 5881 5883 5885 5886 5887 5887 5888 5889 5889 5889 5890
5627 5633 5640 5646 5651 5656 5664 5672 5678 5684 5688 5693 5700 5705 5711 5717 5721 5726 5730 5735 5739 5744 5748 5752 5756 5760 5764 5767 5771 5775 5777 5781 5786 5788 5789 5793 5795 5798 5801 5805 5808 5810 5812 5815 5817 5819 5821 5824 5826 5828 5831 5834 5836 5838 5840 5842 5845 5849 5852 5852 5852 5856 5859 5861 5864 5865 5867 5869 5871 5872 5872 5873 5875 5876 5876 5878 5879 5880 5883 5884 5885 5886 5887 5888 5889 5889 5889 5890
5621 5628 5635 5641 5646 5652 5659 5667 5675 5681 5686 5691 5696 5701 5707 5712 5718 5722 5727 5731 5735 5740 5744 5748 5752 5757 5761 5764 5767 5771 5774 5779 5783 5785 5787 5790 5792 5795 5798 5801 5805 5807 5810 5812 5815 5817 5820 5822 5824 5826 5828 5831 5834 5836 5837 5839 5843 5847 5849 5850 5851 5854 5856 5858 5861 5863 5865 5867 5869 5870 5871 5872 5873 5874 5875 5876 5877 5879 5881 5883 5884 5885 5886 5887 5888 5888 5889 5889
5615 5622 5630 5637 5642 5648 5656 5664 5672 5678 5682 5687 5691 5696 5702 5708 5713 5718 5723 5727 5731 5736 5740 5744 5749 5753 5758 5761 5764 5768 5772 5776 5780 5782 5784 5786 5789 5791 5795 5798 5801 5804 5807 5810 5813 5815 5818 5820 5822 5824 5826 5829 5832 5834 5835 5837 5841 5845 5846 5847 5849 5852 5854 5856 5859 5861 5863 5864 5866 5869 5870 5871 5871 5873 5874 5874 5876 5878 5880 5881 5883 5884 5885 5886 5887 5888 5889 5890
5610 5616 5625 5633 5639 5645 5652 5660 5669 5675 5679 5683 5687 5692 5697 5703 5709 5714 5718 5723 5727 5732 5736 5740 5745 5750 5754 5757 5760 5765 5771 5774 5777 5780 5782 5784 5786 5789 5792 5795 5798 5802 5805 5807 5810 5813 5816 5819 5821 5822 5824 5826 5829 5831 5832 5834 5838 5842 5843 5844 5846 5850 5852 5854 5856 5859 5860 5861 5865 5867 5868 5870 5870 5871 5872 5873 5876 5877 5878 5880 5882 5883 5884 5886 5887 5888 5889 5889
5605 5611 5619 5628 5636 5641 5645 5654 5664 5671 5676 5680 5684 5688 5693 5699 5705 5710 5715 5719 5723 5727 5731 5736 5741 5746 5750 5753 5757 5762 5767 5769 5772 5776 5779 5782 5785 5787 5790 5792 5795 5798 5802 5805 5808 5811 5813 5816 5819 5820 5822 5823 5825 5828 5830 5831 5835 5839 5841 5842 5845 5848 5850 5852 5854 5856 5858 5859 5862 5864 5866 5868 5869 5870 5871 5872 5874 5875 5877 5879 5881 5882 5884 5885 5887 5888 5889 5889
5601 5606 5614 5623 5631 5636 5641 5649 5659 5665 5672 5678 5682 5686 5691 5696 5701 5706 5711 5715 5719 5723 5728 5732 5737 5742 5746 5750 5755 5760 5763 5765 5768 5772 5775 5779 5782 5785 5787 5789 5792 5795 5799 5802 5805 5809 5811 5813 5816 5817 5819 5821 5823 5825 5827 5829 5833 5837 5838 5840 5843 5846 5849 5850 5852 5854 5856 5857 5860 5862 5863 5865 5867 5869 5870 5870 5872 5874 5876 5877 5879 5881 5883 5884 5885 5887 5888 5889
5597 5602 5609 5617 5625 5632 5637 5645 5654 5662 5669 5675 5679 5683 5687 5692 5697 5702 5707 5711 5715 5719 5724 5728 5733 5738 5742 5746 5751 5756 5759 5762 5766 5769 5773 5777 5779 5782 5784 5786 5789 5791 5795 5799 5803 5806 5808 5810 5813 5814 5817 5819 5820 5822 5824 5827 5830 5834 5836 5837 5840 5844 5846 5848 5850 5852 5853 5855 5857 5859 5860 5863 5868 5869 5868 5869 5871 5873 5875 5877 5878 5880 5882 5883 5884 5886 5887 5888
5593 5598 5604 5611 5620 5627 5633 5642 5652 5659 5666 5672 5675 5678 5683 5688 5693 5698 5702 5707 5710 5714 5719 5724 5729 5734 5738 5743 5747 5751 5754 5758 5762 5766 5770 5774 5776 5779 5781 5783 5786 5787 5791 5796 5799 5802 5805 5807 5809 5811 5814 5816 5817 5819 5822 5825 5828 5831 5833 5834 5837 5840 5844 5846 5847 5849 5851 5853 5854 5856 5858 5864 5867 5866 5866 5868 5870 5871 5873 5875 5877 5879 5881 5882 5883 5884 5886 5887
5588 5593 5599 5606 5615 5623 5629 5638 5649 5655 5662 5668 5672 5675 5679 5684 5689 5694 5699 5703 5706 5710 5714 5719 5724 5728 5734 5739 5744 5747 5750 5754 5758 5762 5766 5770 5773 5776 5778 5780 5783 5785 5789 5794 5797 5799 5802 5804 5806 5809 5811 5813 5815 5817 5819 5821 5824 5828 5830 5832 5834 5837 5841 5844 5845 5847 5849 5850 5852 5853 5857 5864 5864 5863 5865 5867 5868 5870 5872 5873 5875 5877 5879 5881 5882 5883 5884 5886
5582 5588 5594 5601 5610 5619 5625 5635 5644 5650 5657 5663 5667 5670 5675 5680 5685 5690 5694 5698 5702 5706 5711 5715 5719 5723 5729 5734 5739 5742 5747 5751 5755 5759 5763 5767 5770 5772 5775 5777 5779 5783 5787 5791 5794 5797 5799 5801 5804 5807 5809 5811 5813 5815 5816 5819 5821 5824 5827 5829 5831 5834 5838 5841 5842 5844 5846 5848 5850 5851 5856 5861 5860 5860 5864 5866 5867 5869 5870 5872 5874 5876 5878 5879 5880 5882 5883 5884
5576 5582 5590 5597 5604 5614 5622 5631 5639 5645 5652 5657 5661 5666 5670 5675 5680 5685 5689 5693 5698 5702 5706 5709 5713 5719 5724 5729 5734 5739 5744 5748 5751 5755 5759 5763 5765 5768 5771 5774 5776 5780 5783 5786 5790 5793 5795 5798 5801 5804 5806 5808 5811 5813 5815 5816 5818 5821 5824 5826 5828 5831 5835 5838 5839 5841 5843 5845 5846 5848 5854 5859 5857 5859 5863 5865 5866 5867 5869 5871 5873 5874 5876 5877 5879 5880 5881 5883
5570 5577 5585 5593 5600 5609 5617 5627 5635 5642 5649 5653 5656 5660 5665 5669 5674 5679 5682 5687 5691 5696 5701 5705 5711 5715 5717 5723 5731 5737 5742 5745 5748 5751 5754 5758 5761 5764 5767 5770 5773 5776 5780 5783 5786 5789 5791 5794 5798 5801 5803 5805 5808 5810 5812 5813 5816 5818 5820 5822 5825 5828 5832 5835 5837 5839 5840 5842 5844 5846 5852 5856 5856 5858 5862 5863 5864 5866 5867 5869 5870 5871 5873 5875 5876 5878 5880 5882
5563 5571 5580 5588 5597 5604 5611 5622 5632 5638 5644 5650 5653 5656 5660 5664 5667 5670 5672 5677 5684 5689 5694 5698 5703 5705 5709 5721 5731 5737 5741 5743 5745 5748 5751 5754 5757 5760 5763 5767 5771 5774 5777 5779 5782 5785 5788 5792 5795 5797 5800 5803 5806 5809 5811 5813 5815 5816 5817 5819 5822 5825 5828 5832 5834 5836 5838 5840 5842 5844 5849 5854 5854 5856 5860 5861 5862 5864 5865 5866 5867 5869 5871 5873 5875 5877 5878 5880
5556 5565 5574 5583 5593 5600 5607 5617 5627 5633 5638 5646 5652 5655 5658 5659 5660 5662 5664 5668 5672 5675 5680 5688 5694 5701 5712 5725 5731 5733 5737 5739 5742 5745 5748 5751 5754 5756 5758 5763 5768 5770 5773 5776 5778 5782 5786 5789 5792 5795 5799 5802 5805 5807 5809 5811 5812 5811 5813 5815 5819 5822 5826 5829 5831 5833 5835 5838 5840 5843 5848 5852 5852 5854 5857 5858 5860 5862 5862 5863 5865 5868 5870 5872 5874 5875 5876 5878
5549 5559 5569 5578 5588 5597 5603 5612 5622 5628 5631 5640 5646 5646 5645 5645 5644 5646 5652 5660 5667 5673 5683 5691 5697 5704 5715 5722 5725 5728 5731 5733 5737 5741 5744 5746 5750 5752 5755 5759 5764 5767 5770 5773 5775 5779 5783 5786 5790 5794 5798 5799 5801 5803 5806 5807 5807 5807 5809 5812 5815 5819 5823 5826 5828 5830 5833 5835 5837 5840 5845 5849 5849 5851 5853 5854 5856 5858 5859 5861 5864 5866 5868 5870 5871 5872 5874 5875
5544 5553 5563 5573 5583 5592 5600 5607 5616 5622 5625 5631 5635 5635 5635 5636 5638 5643 5650 5658 5668 5678 5688 5693 5696 5703 5710 5716 5720 5722 5723 5727 5732 5735 5738 5742 5746 5748 5751 5756 5761 5765 5768 5770 5773 5776 5779 5783 5787 5790 5792 5794 5796 5798 5801 5802 5803 5805 5807 5809 5812 5816 5820 5822 5824 5827 5830 5832 5835 5837 5841 5845 5847 5847 5849 5850 5853 5855 5857 5859 5862 5863 5865 5866 5868 5870 5871 5872
5539 5547 5557 5568 5577 5587 5596 5602 5609 5616 5619 5620 5625 5631 5635 5638 5647 5655 5659 5661 5667 5676 5682 5687 5693 5700 5707 5711 5714 5716 5718 5724 5728 5729 5732 5736 5739 5742 5747 5753 5757 5761 5765 5767 5770 5773 5775 5779 5783 5785 5787 5789 5791 5794 5797 5797 5799 5803 5805 5806 5809 5813 5817 5819 5821 5824 5826 5828 5831 5834 5836 5841 5843 5842 5843 5846 5848 5852 5854 5856 5858 5860 5861 5863 5866 5867 5868 5869
5534 5541 5550 5560 5572 5582 5590 5597 5602 5607 5610 5613 5619 5628 5634 5640 5646 5652 5655 5660 5665 5668 5671 5676 5684 5692 5699 5704 5708 5712 5716 5720 5724 5727 5730 5732 5735 5739 5745 5751 5754 5758 5761 5764 5768 5770 5774 5778 5781 5782 5784 5786 5788 5791 5793 5795 5798 5801 5802 5804 5807 5811 5814 5816 5818 5820 5823 5825 5827 5830 5832 5837 5840 5838 5839 5842 5846 5849 5851 5853 5855 5857 5859 5862 5864 5865 5866 5867
5530 5536 5543 5555 5567 5575 5585 5592 5594 5596 5604 5611 5618 5625 5632 5638 5642 5644 5648 5655 5660 5664 5667 5671 5677 5683 5688 5695 5701 5705 5709 5715 5720 5724 5727 5730 5733 5738 5744 5748 5751 5755 5758 5762 5765 5768 5772 5776 5778 5779 5781 5783 5785 5788 5791 5793 5797 5799 5801 5802 5805 5809 5811 5813 5814 5816 5819 5820 5823 5827 5828 5832 5836 5835 5837 5840 5843 5846 5848 5850 5853 5855 5857 5859 5860 5862 5864 5866
5525 5530 5538 5549 5559 5569 5580 5582 5582 5591 5601 5607 5613 5620 5627 5633 5640 5643 5646 5650 5655 5659 5662 5667 5673 5679 5684 5690 5696 5699 5704 5710 5714 5719 5724 5727 5731 5736 5741 5744 5748 5752 5755 5758 5761 5765 5768 5770 5773 5775 5777 5780 5782 5785 5789 5792 5794 5797 5799 5801 5803 5805 5807 5808 5810 5812 5814 5815 5819 5823 5823 5828 5833 5832 5834 5837 5839 5843 5846 5847 5850 5852 5854 5856 5857 5860 5862 5863
5520 5525 5533 5542 5552 5563 5566 5568 5578 5589 5594 5600 5609 5616 5622 5630 5636 5640 5642 5645 5647 5650 5655 5661 5668 5675 5682 5688 5693 5697 5701 5706 5710 5714 5718 5721 5726 5732 5737 5741 5746 5749 5751 5753 5756 5761 5764 5766 5768 5770 5773 5776 5778 5782 5786 5789 5791 5794 5797 5799 5799 5800 5802 5804 5806 5807 5809 5812 5815 5818 5819 5824 5829 5830 5832 5834 5835 5840 5843 5844 5847 5849 5851 5853 5856 5858 5860 5861
5514 5520 5527 5536 5545 5550 5553 5564 5577 5582 5587 5599 5607 5612 5620 5628 5632 5635 5637 5638 5638 5641 5649 5656 5662 5670 5677 5683 5690 5693 5697 5703 5709 5711 5714 5717 5721 5726 5731 5736 5741 5743 5745 5748 5753 5759 5760 5762 5765 5767 5769 5772 5775 5780 5784 5786 5789 5792 5794 5794 5794 5795 5796 5798 5801 5802 5805 5808 5810 5813 5815 5818 5823 5827 5828 5829 5831 5835 5839 5841 5844 5846 5848 5851 5853 5855 5856 5857
5508 5516 5522 5529 5536 5543 5554 5568 5573 5578 5593 5604 5607 5612 5618 5624 5628 5630 5627 5625 5627 5635 5643 5651 5659 5667 5671 5678 5684 5687 5694 5703 5707 5708 5711 5714 5717 5721 5726 5732 5736 5739 5741 5746 5752 5756 5757 5759 5763 5765 5767 5770 5775 5779 5780 5782 5785 5789 5790 5790 5791 5791 5792 5793 5795 5797 5800 5802 5804 5809 5811 5811 5818 5825 5825 5825 5828 5831 5835 5838 5840 5843 5845 5847 5849 5851 5852 5853
5503 5510 5516 5523 5532 5542 5554 5563 5570 5585 5598 5601 5604 5611 5616 5619 5622 5622 5618 5616 5620 5630 5638 5646 5655 5661 5665 5672 5677 5681 5689 5697 5702 5706 5709 5710 5713 5719 5724 5729 5732 5734 5738 5743 5748 5750 5752 5756 5759 5761 5765 5770 5774 5775 5776 5779 5782 5785 5786 5786 5787 5787 5788 5789 5790 5793 5794 5795 5800 5805 5807 5807 5812 5821 5822 5821 5825 5828 5832 5835 5837 5839 5841 5843 5844 5847 5848 5849
5497 5504 5511 5517 5525 5534 5543 5553 5567 5583 5590 5594 5600 5607 5611 5613 5612 5609 5605 5606 5615 5625 5633 5641 5650 5655 5661 5667 5672 5677 5683 5688 5696 5702 5704 5707 5712 5716 5721 5725 5727 5730 5735 5740 5743 5745 5749 5752 5754 5757 5762 5765 5768 5769 5771 5775 5777 5780 5781 5782 5783 5784 5785 5786 5786 5788 5788 5791 5797 5801 5803 5804 5806 5815 5820 5819 5821 5826 5828 5831 5833 5835 5838 5839 5841 5843 5844 5846
5492 5500 5505 5510 5519 5529 5536 5546 5558 5569 5577 5585 5593 5600 5604 5603 5600 5597 5595 5603 5615 5622 5627 5635 5643 5651 5658 5663 5669 5675 5680 5684 5689 5693 5697 5704 5708 5712 5717 5720 5723 5727 5732 5737 5741 5744 5747 5749 5751 5755 5758 5760 5762 5763 5766 5769 5772 5774 5776 5777 5779 5780 5781 5781 5782 5783 5784 5789 5795 5797 5799 5799 5799 5808 5816 5817 5818 5822 5824 5826 5829 5831 5834 5836 5838 5839 5841 5843
5488 5495 5500 5508 5519 5527 5535 5547 5557 5565 5573 5578 5585 5592 5593 5590 5588 5587 5591 5603 5612 5615 5623 5632 5639 5649 5657 5663 5669 5673 5677 5681 5683 5687 5694 5701 5704 5709 5714 5718 5722 5726 5730 5736 5739 5741 5744 5746 5749 5752 5755 5756 5758 5760 5762 5765 5768 5769 5771 5773 5774 5775 5775 5776 5777 5778 5782 5787 5791 5793 5794 5794 5794 5802 5811 5814 5815 5817 5819 5822 5825 5827 5830 5833 5835 5836 5837 5839
5484 5492 5498 5507 5516 5523 5535 5549 5557 5564 5571 5575 5580 5583 5583 5581 5579 5581 5589 5599 5608 5617 5628 5635 5642 5650 5653 5657 5662 5667 5673 5678 5680 5685 5692 5696 5700 5706 5711 5715 5720 5724 5730 5735 5736 5738 5741 5744 5747 5749 5751 5753 5755 5757 5760 5762 5764 5765 5767 5768 5768 5769 5770 5772 5773 5775 5779 5784 5785 5788 5789 5789 5792 5797 5804 5810 5811 5813 5816 5818 5820 5824 5826 5828 5831 5833 5834 5835
5482 5489 5495 5503 5513 5523 5533 5541 5549 5559 5567 5570 5573 5574 5574 5573 5574 5580 5589 5599 5610 5619 5625 5630 5637 5642 5645 5650 5657 5663 5669 5672 5677 5683 5686 5689 5693 5699 5705 5711 5717 5721 5726 5729 5732 5736 5739 5742 5747 5748 5750 5752 5753 5755 5757 5759 5760 5761 5763 5764 5765 5767 5768 5770 5771 5772 5776 5779 5780 5783 5784 5785 5790 5794 5798 5805 5808 5810 5812 5814 5817 5820 5823 5825 5827 5828 5830 5832
5479 5485 5493 5500 5508 5517 5524 5532 5543 5555 5560 5562 5564 5563 5564 5567 5572 5579 5587 5598 5608 5612 5617 5626 5632 5635 5639 5646 5654 5661 5665 5668 5674 5678 5680 5685 5691 5697 5703 5708 5713 5717 5720 5723 5727 5731 5734 5739 5743 5745 5746 5748 5750 5752 5753 5754 5754 5755 5758 5759 5762 5766 5767 5768 5768 5770 5773 5774 5774 5778 5780 5783 5788 5791 5793 5799 5805 5807 5809 5811 5813 5816 5818 5820 5822 5824 5826 5827
5472 5479 5486 5492 5499 5508 5516 5526 5539 5549 5554 5555 5554 5553 5558 5566 5575 5583 5591 5600 5606 5608 5612 5619 5624 5628 5634 5640 5647 5654 5662 5669 5673 5674 5678 5685 5690 5695 5701 5705 5710 5714 5718 5722 5726 5728 5731 5735 5737 5739 5741 5743 5744 5747 5749 5749 5750 5752 5753 5756 5760 5762 5762 5764 5765 5767 5768 5768 5770 5774 5777 5781 5785 5786 5789 5794 5800 5803 5805 5807 5809 5811 5814 5816 5818 5820 5821 5822
5461 5469 5476 5483 5494 5504 5513 5524 5534 5543 5549 5548 5545 5550 5561 5570 5578 5586 5594 5600 5603 5607 5610 5612 5615 5622 5629 5635 5641 5649 5657 5664 5668 5672 5678 5684 5687 5692 5697 5702 5707 5713 5717 5721 5724 5727 5730 5733 5735 5736 5737 5739 5741 5742 5744 5745 5747 5748 5750 5754 5757 5756 5758 5761 5761 5762 5764 5764 5767 5771 5773 5777 5780 5782 5786 5789 5794 5799 5801 5803 5804 5807 5809 5811 5813 5814 5816 5817
5456 5465 5472 5480 5491 5500 5510 5523 5532 5538 5542 5542 5544 5554 5564 5570 5575 5582 5589 5594 5596 5602 5608 5612 5616 5622 5626 5633 5640 5647 5654 5657 5662 5669 5675 5681 5687 5693 5697 5701 5705 5709 5713 5716 5719 5722 5725 5728 5730 5732 5733 5735 5737 5738 5740 5742 5744 5746 5748 5750 5751 5751 5754 5756 5756 5757 5760 5760 5763 5766 5768 5771 5774 5778 5782 5785 5789 5794 5797 5799 5801 5802 5804 5806 5808 5809 5811 5813
5454 5461 5468 5478 5489 5498 5509 5520 5528 5533 5534 5534 5540 5551 5557 5563 5571 5577 5583 5589 5594 5599 5606 5613 5620 5623 5627 5633 5639 5644 5648 5653 5659 5665 5670 5677 5684 5690 5695 5698 5701 5705 5708 5711 5714 5718 5720 5722 5724 5726 5728 5730 5731 5733 5736 5739 5741 5743 5744 5745 5747 5748 5750 5751 5752 5754 5755 5756 5759 5762 5762 5765 5770 5776 5780 5782 5786 5789 5792 5795 5797 5798 5799 5801 5803 5805 5807 5809
5448 5454 5463 5473 5484 5495 5507 5517 5523 5525 5526 5531 5540 5549 5554 5561 5570 5576 5581 5587 5593 5598 5605 5613 5619 5623 5627 5632 5637 5641 5645 5651 5657 5662 5668 5675 5681 5685 5689 5692 5696 5701 5703 5705 5709 5712 5715 5718 5720 5722 5724 5725 5726 5729 5733 5736 5737 5739 5740 5741 5744 5745 5745 5747 5748 5750 5751 5752 5755 5755 5756 5761 5768 5773 5777 5780 5782 5785 5788 5791 5793 5795 5796 5797 5798 5800 5802 5804
5443 5452 5460 5470 5480 5490 5500 5507 5511 5515 5522 5532 5541 5547 5552 5559 5566 5573 5579 5586 5591 5597 5605 5612 5617 5622 5626 5629 5633 5638 5643 5649 5654 5659 5665 5672 5678 5683 5687 5690 5693 5696 5697 5700 5704 5707 5710 5713 5715 5717 5720 5722 5724 5726 5729 5731 5733 5735 5736 5738 5740 5741 5742 5743 5744 5747 5749 5749 5750 5751 5752 5758 5765 5769 5773 5777 5779 5781 5784 5786 5788 5790 5791 5792 5794 5795 5797 5799
5439 5446 5456 5467 5475 5482 5490 5497 5503 5511 5521 5530 5537 5543 5549 5554 5561 5570 5577 5582 5587 5594 5601 5608 5614 5619 5623 5627 5632 5636 5641 5647 5652 5657 5664 5671 5677 5683 5685 5688 5691 5693 5694 5698 5701 5704 5708 5710 5711 5713 5716 5718 5720 5722 5725 5727 5729 5730 5731 5734 5736 5735 5737 5739 5740 5744 5745 5744 5748 5749 5748 5755 5762 5765 5770 5774 5776 5778 5780 5782 5784 5785 5786 5788 5789 5790 5792 5793
5436 5448 5461 5469 5473 5478 5485 5491 5498 5508 5517 5527 5535 5542 5547 5551 5558 5567 5573 5578 5583 5589 5595 5601 5607 5613 5619 5625 5630 5634 5639 5645 5650 5657 5663 5669 5675 5679 5681 5684 5687 5689 5691 5694 5698 5702 5704 5705 5707 5709 5712 5714 5716 5718 5721 5723 5725 5726 5729 5731 5731 5731 5733 5734 5736 5740 5739 5741 5746 5745 5744 5751 5758 5761 5765 5769 5771 5774 5776 5778 5779 5780 5782 5783 5784 5785 5787 5787
5436 5450 5460 5466 5471 5477 5479 5482 5490 5501 5512 5522 5531 5536 5541 5547 5553 5561 5570 5576 5581 5587 5593 5599 5604 5610 5617 5623 5628 5634 5639 5644 5648 5655 5662 5667 5671 5674 5677 5680 5682 5684 5688 5693 5696 5698 5698 5698 5701 5704 5706 5708 5711 5713 5716 5719 5721 5722 5724 5725 5725 5727 5729 5730 5733 5734 5734 5738 5742 5740 5742 5749 5753 5755 5759 5762 5765 5769 5772 5773 5775 5776 5777 5778 5779 5780 5781 5782
5433 5444 5452 5459 5465 5470 5475 5483 5494 5502 5509 5518 5525 5532 5538 5544 5551 5561 5571 5577 5581 5586 5592 5598 5603 5607 5612 5618 5625 5632 5637 5642 5647 5651 5657 5663 5667 5670 5673 5676 5679 5682 5687 5690 5691 5693 5693 5695 5699 5701 5702 5704 5708 5712 5717 5720 5719 5718 5720 5721 5723 5724 5726 5728 5730 5729 5731 5736 5737 5737 5743 5749 5749 5751 5754 5757 5762 5766 5768 5769 5770 5771 5772 5773 5774 5775 5776 5777
5429 5432 5438 5448 5457 5464 5475 5488 5498 5503 5510 5517 5523 5530 5537 5542 5550 5560 5567 5571 5576 5582 5587 5594 5598 5601 5605 5612 5618 5624 5631 5638 5643 5648 5654 5659 5663 5666 5670 5674 5677 5681 5683 5684 5685 5687 5688 5691 5695 5697 5700 5704 5708 5713 5717 5718 5717 5718 5721 5723 5723 5724 5725 5726 5727 5728 5732 5735 5734 5737 5744 5745 5745 5747 5748 5752 5757 5760 5762 5764 5764 5765 5765 5767 5768 5769 5770 5771
5428 5428 5429 5436 5445 5457 5469 5481 5491 5499 5509 5516 5522 5529 5535 5541 5548 5555 5559 5565 5572 5577 5583 5588 5591 5595 5600 5606 5612 5619 5627 5632 5637 5645 5652 5658 5662 5665 5668 5671 5674 5676 5678 5679 5681 5683 5683 5686 5691 5694 5698 5702 5705 5707 5710 5711 5713 5716 5718 5719 5720 5721 5722 5722 5724 5729 5732 5731 5731 5737 5740 5739 5741 5742 5741 5745 5751 5754 5756 5757 5757 5758 5759 5760 5761 5763 5764 5765
5419 5426 5435 5441 5444 5449 5459 5473 5486 5496 5506 5514 5521 5528 5533 5538 5543 5549 5555 5562 5568 5571 5576 5581 5587 5594 5600 5605 5610 5616 5621 5626 5633 5640 5646 5651 5656 5661 5664 5666 5669 5672 5674 5675 5677 5679 5680 5684 5689 5692 5694 5698 5699 5701 5703 5705 5708 5710 5711 5713 5715 5716 5716 5718 5722 5726 5726 5724 5728 5733 5733 5734 5736 5736 5736 5740 5744 5746 5748 5749 5749 5751 5752 5753 5755 5756 5757 5757
5413 5421 5432 5441 5447 5455 5468 5480 5488 5495 5502 5508 5515 5521 5528 5533 5540 5547 5554 5560 5564 5568 5572 5578 5585 5593 5598 5603 5608 5611 5614 5620 5627 5634 5641 5647 5651 5654 5656 5659 5662 5666 5668 5669 5672 5674 5676 5680 5685 5687 5690 5693 5694 5696 5699 5701 5703 5704 5706 5708 5709 5711 5712 5715 5719 5720 5719 5720 5724 5726 5727 5729 5730 5731 5733 5734 5735 5738 5741 5743 5744 5745 5746 5747 5749 5750 5749 5750
5417 5422 5427 5435 5447 5463 5477 5485 5489 5495 5500 5504 5510 5519 5526 5533 5540 5547 5552 5557 5562 5568 5573 5578 5585 5592 5596 5600 5603 5607 5614 5621 5627 5632 5637 5640 5644 5647 5649 5652 5656 5659 5660 5662 5665 5668 5671 5675 5679 5682 5684 5686 5689 5692 5694 5695 5697 5699 5701 5703 5705 5708 5710 5712 5714 5713 5714 5718 5721 5720 5722 5725 5726 5728 5730 5730 5731 5734 5736 5738 5740 5741 5741 5742 5742 5741 5741 5742
5422 5430 5437 5443 5452 5462 5470 5477 5484 5491 5494 5499 5508 5517 5524 5531 5539 5545 5550 5556 5563 5569 5574 5580 5586 5589 5592 5596 5600 5607 5615 5623 5629 5634 5637 5639 5642 5645 5646 5648 5652 5654 5656 5658 5660 5664 5667 5669 5673 5677 5678 5680 5685 5687 5688 5690 5692 5692 5694 5699 5703 5706 5707 5708 5708 5709 5712 5716 5716 5715 5718 5722 5725 5727 5728 5728 5729 5730 5731 5734 5735 5735 5734 5733 5732 5732 5733 5735
5422 5431 5440 5447 5453 5459 5466 5473 5478 5484 5490 5498 5508 5516 5522 5530 5538 5542 5547 5554 5561 5566 5573 5579 5582 5584 5587 5591 5599 5609 5616 5621 5626 5631 5636 5640 5644 5645 5646 5649 5651 5653 5655 5657 5659 5662 5664 5666 5671 5674 5674 5678 5682 5683 5684 5686 5683 5683 5691 5700 5703 5702 5702 5702 5703 5706 5709 5711 5710 5712 5717 5720 5721 5723 5723 5723 5724 5725 5726 5728 5728 5727 5726 5724 5724 5725 5727 5730